Theta_e
332 326 325 324 313 311 303 304 309 309 310 316 317 316 315 318 315 311 334 338 338 341 344 346 347 349 348 347 348 348 346 342 341 340 339 339 338 338 339 343 341 341 342 337 336 337 335 334 334
327 322 327 320 309 304 303 306 306 311 317 320 320 320 318 317 326 328 333 336 340 343 344 345 345 348 348 347 347 346 344 342 340 339 338 338 338 338 340 341 340 340 340 336 335 335 334 333 333
324 321 320 314 307 302 302 306 309 314 319 318 319 323 321 319 328 331 336 338 341 342 344 345 345 348 347 346 346 346 344 342 339 338 338 337 337 339 339 339 339 340 337 336 335 334 333 334 334
320 325 319 309 304 307 305 308 311 316 316 317 320 316 324 330 329 334 336 339 339 340 343 344 346 348 347 346 346 346 345 343 340 338 337 337 337 337 338 339 337 339 337 335 334 334 334 334 334
323 321 312 308 306 308 308 310 314 315 314 315 319 313 319 330 334 335 336 339 339 340 341 344 345 346 346 345 345 346 345 344 342 339 337 336 336 335 337 338 337 337 336 334 334 333 334 333 334
320 316 307 304 307 309 311 313 314 314 313 316 316 316 320 332 334 335 337 339 340 338 340 342 338 340 343 344 344 344 344 343 342 340 337 336 335 335 335 335 335 333 334 335 333 333 333 333 332
316 313 307 306 307 308 310 314 311 312 313 314 320 313 321 327 335 337 337 338 339 338 338 340 341 337 336 339 339 340 341 342 341 341 339 337 336 335 333 333 334 333 334 335 333 332 332 332 332
313 315 306 307 307 307 310 312 312 312 312 320 323 312 314 329 335 336 336 337 337 337 337 338 338 338 338 340 331 332 334 336 337 336 334 332 332 332 332 331 334 334 333 334 334 332 331 331 330
314 307 305 306 305 310 309 309 311 315 315 319 323 320 323 333 334 332 332 333 334 334 335 337 336 336 336 337 330 328 328 329 330 330 327 328 333 331 330 328 331 333 333 331 331 332 331 330 328
314 307 308 310 310 309 310 308 310 311 313 315 319 325 328 330 330 327 326 327 329 332 333 334 335 334 334 332 334 334 332 333 333 335 335 334 333 332 329 326 327 330 330 330 328 327 327 325 327
315 310 310 309 307 312 305 307 310 310 310 314 315 320 325 326 328 327 329 330 328 332 332 333 333 333 332 332 333 333 333 333 333 333 333 334 332 332 330 329 327 329 323 328 327 326 327 326 328
310 314 313 313 314 314 310 309 307 310 313 316 318 322 325 324 325 328 327 328 329 329 332 332 332 332 332 332 332 332 332 332 331 332 331 332 331 331 329 327 327 327 327 327 327 328 328 327 327
312 312 314 315 314 313 308 308 308 308 313 316 314 323 325 326 326 328 329 329 330 329 332 332 332 332 331 331 330 330 331 331 331 331 331 330 330 329 329 327 326 325 326 326 326 327 326 326 326
312 313 313 315 314 312 312 313 305 312 311 313 315 319 324 326 326 326 326 326 329 332 333 332 332 332 331 330 330 329 329 329 330 329 329 330 329 329 328 327 327 325 324 325 326 326 325 324 325
312 307 311 312 312 310 313 309 307 315 312 310 314 317 322 325 327 326 328 330 332 332 333 331 331 332 331 330 330 329 329 327 328 328 329 328 328 328 327 327 326 326 325 324 325 325 325 325 324
306 306 299 306 309 310 308 304 313 312 308 309 312 316 319 323 326 328 330 331 333 333 331 331 330 331 331 330 330 329 329 328 327 328 328 327 327 328 328 327 326 326 325 323 322 324 324 323 323
303 295 298 300 310 309 306 306 313 311 309 310 311 314 317 320 324 327 329 331 333 333 332 331 331 331 331 332 331 330 329 328 328 328 327 327 327 328 328 328 328 328 323 323 323 324 324 323 323
295 296 297 297 304 307 305 306 312 311 307 308 310 311 314 317 321 325 328 330 332 333 333 332 331 332 332 332 331 331 330 329 329 328 327 327 327 327 328 328 329 329 326 324 325 324 325 323 323
300 298 296 300 304 304 303 304 308 313 313 312 314 312 311 313 319 324 327 329 330 332 332 332 331 332 331 330 327 326 324 328 328 329 328 327 327 326 327 328 328 329 327 326 326 326 324 323 324
300 298 298 301 302 303 302 303 308 310 312 312 314 315 315 313 314 319 324 327 328 329 331 331 332 332 332 331 330 329 329 329 330 330 329 328 327 326 326 327 327 328 327 327 326 325 323 324 325
298 297 297 298 300 302 300 298 301 306 310 312 312 313 314 315 314 315 318 323 327 328 330 330 331 332 332 331 331 330 330 330 329 329 329 329 328 327 326 327 328 328 328 326 327 326 324 321 324
293 302 300 298 297 291 300 290 298 302 304 307 309 311 312 313 316 316 316 318 323 327 330 331 331 331 332 332 330 328 327 325 328 329 330 330 330 329 328 328 328 328 329 327 328 328 326 324 322
297 301 299 299 296 296 296 292 297 302 300 303 308 311 313 314 315 316 316 316 320 326 329 331 330 330 331 332 331 330 328 331 331 330 330 330 331 330 329 329 329 328 329 329 328 327 325 326 324
303 298 297 298 295 287 293 293 294 298 300 304 308 311 313 314 315 316 318 318 316 322 328 329 328 328 330 330 331 330 329 330 330 331 330 330 330 330 330 330 329 329 328 328 328 327 326 324 324
300 295 286 284 284 284 295 292 295 301 304 305 306 309 312 314 315 314 315 316 316 316 321 325 326 326 329 330 330 331 331 330 329 330 330 329 329 329 329 329 329 329 329 328 328 325 324 323 322
297 295 287 281 283 286 293 288 295 304 306 308 308 309 311 312 314 314 316 317 316 316 317 321 323 324 326 328 328 330 332 331 331 331 330 329 329 329 330 329 329 329 328 328 327 324 323 323 322
295 290 298 289 283 285 290 295 301 301 301 305 307 308 308 310 312 312 314 315 315 316 315 318 321 323 325 327 327 328 330 330 330 330 331 330 330 329 329 328 328 328 328 327 327 324 322 322 321
297 299 288 288 282 281 287 290 292 297 299 302 303 305 307 309 310 311 310 310 312 314 315 315 318 321 324 326 327 327 328 329 329 329 328 329 329 328 327 327 327 327 327 327 326 324 323 322 322
292 291 291 292 289 284 283 289 300 299 301 301 304 306 307 308 309 311 313 309 309 309 310 311 313 318 321 323 325 325 326 326 328 328 328 327 328 327 326 326 326 325 325 325 325 323 323 321 320
296 293 292 286 285 287 288 289 299 302 303 303 304 305 307 308 310 311 311 308 307 306 307 308 310 314 318 321 322 323 324 324 324 325 326 326 326 326 325 325 324 324 324 323 323 321 321 321 319
Wind_Speed
12 8 2 2 3 2 3 2 1 4 5 2 2 2 2 5 5 4 5 6 13 11 11 11 8 12 14 13 11 13 13 12 14 13 13 14 14 15 12 14 14 14 16 17 16 16 15 16 16
10 6 1 1 2 3 5 2 4 4 3 6 3 2 2 3 3 6 12 8 12 11 9 11 9 10 13 12 12 13 13 13 13 13 13 14 14 13 12 13 15 13 15 15 15 15 16 15 16
6 4 3 2 1 3 3 1 3 5 6 2 3 2 1 3 3 11 5 15 12 10 9 10 8 10 11 11 12 13 12 12 13 12 13 13 13 11 12 14 13 13 16 14 14 14 14 15 16
6 1 3 3 1 2 2 2 4 9 3 2 0 3 2 0 3 5 11 15 13 10 9 11 9 10 11 11 11 11 12 14 13 14 13 12 12 11 12 13 14 13 13 14 14 14 14 14 15
4 2 3 2 1 1 0 0 7 9 3 3 3 2 1 4 3 8 15 13 13 10 8 10 8 9 9 9 11 11 11 13 13 14 13 12 12 11 9 12 14 11 11 14 13 13 13 13 14
3 3 5 6 3 1 0 4 7 7 3 4 4 3 3 2 7 10 15 14 11 11 9 9 7 7 8 8 8 9 10 13 14 15 14 13 12 11 10 8 12 10 11 12 12 12 12 13 13
1 3 4 4 6 5 2 7 6 7 5 6 1 4 2 5 6 11 15 12 9 10 9 9 10 8 6 6 8 6 8 12 13 14 15 13 10 10 10 9 10 10 10 12 12 12 12 12 12
3 1 3 3 7 8 3 6 1 7 5 4 4 5 3 10 11 12 13 11 10 8 9 9 9 9 8 9 6 9 11 10 10 10 12 10 11 9 8 8 8 11 11 10 10 10 11 11 10
2 4 8 5 4 6 1 4 3 1 4 5 8 3 3 14 15 13 11 10 10 8 9 9 9 9 8 9 8 10 12 10 11 11 11 10 7 7 8 8 7 9 9 9 8 8 9 8 7
5 7 15 4 4 6 6 2 4 5 7 7 7 7 5 14 16 16 14 13 12 13 12 10 11 10 9 8 10 10 10 8 7 8 9 5 6 5 5 6 6 7 8 8 7 7 7 7 5
6 10 7 6 4 6 6 5 3 7 8 13 12 12 12 15 16 17 16 16 14 13 11 12 11 11 11 9 8 6 6 6 5 9 8 6 5 6 5 5 5 6 5 5 5 5 4 4 3
6 7 7 4 6 1 5 9 6 11 17 5 6 7 16 18 18 19 17 16 16 14 14 14 13 12 12 8 8 8 7 7 6 7 9 7 5 6 6 5 5 5 5 5 5 3 3 4 4
10 8 10 8 5 5 2 10 11 13 15 10 2 10 16 17 18 17 16 15 15 14 15 15 15 13 12 11 9 9 9 8 8 8 9 7 7 6 6 5 5 4 5 5 5 4 4 4 5
9 12 12 9 8 5 5 8 2 7 6 12 8 12 14 16 19 16 15 17 17 16 15 14 15 15 13 12 11 9 8 9 8 8 8 10 7 6 6 6 5 5 5 5 5 4 4 4 4
5 8 10 13 11 6 7 11 16 15 10 10 13 10 13 15 17 21 19 19 19 16 15 16 15 15 14 14 11 9 8 8 8 8 10 10 10 8 7 5 5 5 5 6 5 5 5 5 5
9 7 13 8 15 6 11 20 16 5 9 15 13 12 12 16 18 18 18 18 18 16 17 16 13 16 15 13 11 9 8 8 8 8 8 11 11 10 8 6 6 6 5 6 6 6 6 6 6
11 13 18 10 13 8 14 14 14 6 9 14 14 13 12 12 16 18 18 17 18 18 17 17 17 17 16 14 11 10 11 9 8 8 8 11 11 11 9 7 7 7 6 6 6 6 6 6 6
15 17 10 14 10 14 13 21 12 10 7 9 13 12 12 13 18 17 17 17 17 17 17 17 15 17 16 11 10 9 9 9 8 8 9 12 10 12 10 8 9 8 7 7 7 8 6 7 6
10 16 13 11 8 9 16 21 21 16 13 14 17 14 15 16 13 13 15 17 17 17 18 18 17 17 12 11 10 9 9 9 9 10 13 13 12 13 12 9 10 9 9 9 9 8 8 7 6
12 12 13 7 6 10 13 17 20 19 20 17 17 17 18 15 15 13 15 17 18 19 20 19 20 18 16 12 12 9 10 11 11 10 12 14 14 14 13 13 11 11 9 11 10 10 8 7 7
16 19 12 10 4 9 11 21 25 21 22 21 19 19 19 19 19 17 17 19 19 20 21 21 22 21 19 18 11 10 8 8 10 12 11 13 15 14 15 15 13 12 10 10 11 11 13 10 8
19 18 8 7 7 10 11 11 16 15 21 25 24 19 21 21 20 19 17 18 20 21 20 20 20 21 19 20 15 18 13 14 13 12 11 12 16 16 16 16 14 13 10 12 11 10 12 11 11
13 11 16 17 15 11 13 11 12 17 20 23 21 20 22 21 21 22 21 19 21 20 19 20 21 20 21 20 20 16 17 12 10 10 13 13 12 15 16 15 14 14 11 13 13 12 12 10 11
9 3 7 13 14 16 27 19 15 20 18 17 19 20 21 22 21 22 21 19 19 16 17 18 21 22 21 21 23 22 21 18 12 13 10 11 10 10 14 15 13 13 13 13 12 13 14 11 10
16 13 4 8 8 11 16 18 26 7 21 19 21 21 19 19 18 20 21 19 18 17 18 17 21 22 21 21 22 23 22 21 20 17 12 13 10 10 12 13 13 11 13 13 12 12 12 12 11
21 20 7 13 7 19 10 12 21 18 25 23 17 18 17 16 14 18 20 17 18 18 19 20 20 21 21 22 22 20 22 13 14 16 12 11 11 10 12 12 13 14 14 13 12 9 10 11 9
9 20 24 8 0 5 8 21 23 5 9 15 21 18 21 18 17 19 17 16 17 17 19 20 20 20 20 21 19 19 18 19 15 18 15 11 12 9 12 12 12 12 12 12 12 9 10 9 10
18 6 12 9 10 11 9 23 16 15 21 16 14 17 19 17 17 16 14 15 14 16 16 17 19 20 19 19 17 16 17 18 17 15 16 15 13 12 11 12 12 11 11 11 11 10 10 10 8
16 16 9 4 14 10 18 16 18 19 14 18 21 22 23 20 17 14 13 12 13 12 14 16 17 18 17 16 16 16 15 16 15 14 14 14 13 12 12 11 11 11 11 11 10 10 11 12 11
19 18 21 11 9 6 16 25 3 12 19 18 22 25 25 22 16 13 11 9 11 15 15 15 15 16 16 15 15 15 14 14 14 15 14 13 13 12 12 11 11 10 10 10 10 11 9 11 10
Wind_Direction
324 341 303 247 246 272 95 129 354 151 161 64 105 246 345 358 351 28 135 121 142 140 139 145 133 127 129 128 128 121 116 115 111 110 107 102 103 106 107 94 88 85 91 89 89 91 90 85 86
332 334 274 355 304 339 68 129 191 139 75 122 137 174 231 64 52 111 141 155 150 142 146 142 132 127 134 137 133 122 120 117 111 109 110 107 107 108 109 95 85 89 97 93 92 93 90 92 95
336 3 310 42 41 35 27 178 136 124 122 175 155 318 21 46 94 157 108 154 153 149 146 128 146 136 140 145 140 132 127 118 115 112 104 103 108 106 100 95 92 91 96 97 96 99 100 98 98
340 315 148 292 8 101 28 23 147 149 192 219 152 191 166 320 145 168 149 154 153 150 153 135 146 145 145 151 140 136 132 128 122 115 108 103 103 103 94 94 93 92 102 101 103 104 104 103 103
8 286 304 281 2 84 217 297 171 177 140 180 197 160 163 134 149 151 157 158 159 153 154 153 146 139 141 144 144 138 140 136 128 119 113 109 104 106 95 97 100 95 104 101 105 108 106 103 99
344 307 259 272 315 10 281 161 168 194 174 146 213 197 154 114 163 159 165 165 164 154 155 152 145 137 141 152 147 148 149 142 135 127 120 116 116 115 112 102 107 106 104 105 107 111 111 111 105
48 319 295 288 293 292 64 152 201 198 192 202 176 218 117 189 170 167 170 165 171 156 160 164 164 153 143 153 143 148 152 148 142 136 131 122 109 108 122 120 121 118 112 116 117 122 121 116 112
111 283 263 251 286 287 108 181 187 211 227 101 191 228 198 179 164 165 168 172 173 168 164 165 164 167 164 154 145 134 101 92 104 118 118 119 112 108 112 125 133 129 122 121 128 130 130 126 118
128 213 255 251 241 287 73 229 145 19 204 202 192 248 61 144 156 161 169 181 179 176 177 169 171 171 166 163 136 117 122 127 124 124 122 150 133 142 160 72 119 130 129 128 129 135 130 122 118
182 196 230 221 292 298 310 279 319 230 212 217 215 191 142 159 172 173 182 179 186 188 179 179 179 178 171 164 167 159 147 160 163 152 159 149 149 147 138 127 121 117 131 132 128 124 140 196 159
159 228 189 146 117 351 320 291 259 254 235 244 231 197 168 178 186 187 190 193 191 188 184 187 183 180 181 176 178 174 172 172 172 171 171 161 161 166 173 154 162 157 179 171 177 171 194 186 198
197 197 186 210 153 186 290 313 267 243 258 356 280 203 172 186 193 195 195 198 194 195 199 186 188 187 185 184 191 187 186 184 183 185 182 183 192 188 182 186 178 182 189 185 201 198 197 204 217
230 202 212 220 238 186 250 256 285 269 262 245 282 180 185 192 200 201 203 202 203 200 202 195 189 193 191 194 193 195 200 196 197 194 196 200 198 195 192 196 194 192 188 205 208 212 213 217 224
209 219 216 215 230 250 186 260 265 257 321 236 214 204 199 199 198 200 203 205 208 208 201 199 197 198 194 198 200 197 203 201 201 200 202 211 211 206 204 201 204 205 211 212 226 230 231 235 234
212 206 231 230 239 244 222 238 239 260 259 257 233 216 208 207 198 207 205 210 208 207 200 199 205 200 201 202 200 205 207 207 204 204 205 206 212 212 212 211 213 219 216 229 234 238 246 248 236
211 233 231 220 206 188 250 255 247 241 245 252 238 228 215 214 212 212 209 214 207 204 203 201 198 203 204 206 203 205 208 211 214 213 206 207 211 212 211 218 220 218 217 223 229 236 241 247 248
207 234 225 226 206 178 212 256 244 209 226 250 244 229 220 224 220 220 215 211 210 209 203 202 201 204 205 208 210 215 216 216 217 218 217 213 213 213 216 220 228 219 222 223 231 239 246 255 254
206 228 220 220 194 206 213 250 242 217 188 244 259 251 234 226 228 220 218 214 214 213 211 209 204 207 204 205 210 215 218 223 226 224 224 219 216 215 219 223 226 221 224 229 229 242 242 259 271
287 221 238 218 191 209 238 247 248 253 246 245 250 250 243 238 236 224 213 213 216 217 215 212 208 208 201 202 203 213 214 221 222 225 225 224 221 218 221 226 228 224 228 232 236 240 247 248 247
225 233 225 228 191 228 252 251 260 251 248 242 248 252 249 250 239 220 218 213 211 215 216 213 214 209 205 204 202 210 204 222 224 219 221 220 219 219 221 225 230 229 231 233 233 230 239 247 239
221 230 227 247 197 253 271 264 258 248 246 241 238 243 254 247 245 233 216 210 213 215 216 215 212 209 206 207 204 207 218 223 217 220 220 218 216 216 220 225 230 230 227 234 230 229 227 242 232
221 211 239 243 232 250 195 277 246 245 230 235 237 226 239 243 240 246 231 218 212 216 218 218 217 213 211 204 204 207 208 213 217 220 220 221 217 219 220 225 227 232 230 235 235 229 232 231 246
236 216 221 235 246 271 238 266 262 239 235 236 230 226 234 234 234 235 230 223 219 211 207 210 214 216 212 206 207 209 216 226 224 219 224 222 218 220 223 224 225 230 230 234 236 231 233 239 245
163 126 218 235 238 242 243 241 246 233 233 244 239 234 232 231 226 231 235 226 224 215 209 205 207 213 211 208 211 215 219 222 219 221 219 220 222 215 224 221 223 228 231 235 237 239 240 234 235
207 199 222 222 223 244 227 231 238 262 230 241 247 247 237 237 226 227 225 222 219 211 210 206 208 214 207 207 209 212 218 220 222 221 217 219 219 220 220 216 218 226 230 232 232 234 235 233 231
205 200 203 220 217 234 156 229 243 233 249 248 246 253 256 253 233 230 231 222 221 216 210 213 210 211 208 205 208 211 214 217 219 221 219 220 221 219 217 212 218 223 229 231 230 231 233 233 231
182 215 232 283 101 285 217 245 265 215 248 234 244 246 248 247 240 233 232 225 223 221 217 214 213 214 208 206 206 209 211 215 215 218 220 220 222 224 216 213 216 225 228 230 230 228 230 223 225
239 175 216 214 202 229 221 243 246 195 216 227 240 252 261 253 244 242 233 231 228 229 231 223 221 215 210 204 204 205 205 211 216 218 219 218 221 219 215 218 222 224 226 228 228 229 232 232 232
209 227 220 262 231 240 254 250 246 243 225 229 233 240 246 251 253 248 244 230 226 224 224 223 221 216 212 204 201 201 203 207 213 216 217 216 218 216 219 218 219 222 224 226 232 232 236 239 246
231 226 222 258 235 231 253 262 120 225 232 223 223 225 237 242 256 257 256 229 222 226 226 218 218 214 208 201 197 198 198 200 206 212 213 210 213 210 213 213 218 222 226 224 234 240 238 245 246